| time (UTC) | temp C | wind direction | speed KPH | gust KPH | rain 1hr cm | rain 24hr cm | rain mn cm | humidity % | barometer mb |
| 20260507123551 | 18 | 246 | 1.6 | 3.2 | 0.00 | 0.00 | 0.00 | 32 | 1015.9 |
| 20260507123050 | 18 | 243 | 1.6 | 3.2 | 0.00 | 0.00 | 0.00 | 33 | 1015.6 |
| 20260507122550 | 18 | 253 | 1.6 | 3.2 | 0.00 | 0.00 | 0.00 | 35 | 1015.8 |
| 20260507121605 | 17 | 234 | 3.2 | 6.4 | 0.00 | 0.00 | 0.00 | 34 | 1015.7 |
| 20260507121049 | 17 | 244 | 3.2 | 4.8 | 0.00 | 0.00 | 0.00 | 33 | 1015.7 |
| 20260507120548 | 17 | 262 | 3.2 | 4.8 | 0.00 | 0.00 | 0.00 | 33 | 1015.9 |
| 20260507115603 | 18 | 235 | 1.6 | 4.8 | 0.00 | 0.00 | 0.00 | 26 | 1015.9 |
| 20260507114548 | 21 | 310 | 3.2 | 6.4 | 0.00 | 0.00 | 0.00 | 22 | 1015.9 |
| 20260507113602 | 20 | 310 | 1.6 | 3.2 | 0.00 | 0.00 | 0.00 | 28 | 1016.2 |
| 20260507112602 | 20 | 319 | 3.2 | 6.4 | 0.00 | 0.00 | 0.00 | 28 | 1015.9 |
| 20260507111601 | 21 | 324 | 4.8 | 8.0 | 0.00 | 0.00 | 0.00 | 29 | 1016.0 |
| 20260507111101 | 20 | 326 | 1.6 | 3.2 | 0.00 | 0.00 | 0.00 | 31 | 1015.9 |
| 20260507110600 | 18 | 310 | 1.6 | 3.2 | 0.00 | 0.00 | 0.00 | 32 | 1016.3 |
| 20260507105605 | 18 | 307 | 3.2 | 4.8 | 0.00 | 0.00 | 0.00 | 33 | 1016.2 |
| 20260507105049 | 18 | 283 | 1.6 | 3.2 | 0.00 | 0.00 | 0.00 | 34 | 1016.5 |
| 20260507104549 | 18 | 287 | 3.2 | 6.4 | 0.00 | 0.00 | 0.00 | 33 | 1016.2 |
| 20260507104003 | 18 | 344 | 1.6 | 3.2 | 0.00 | 0.00 | 0.00 | 36 | 1016.4 |
| 20260507102948 | 17 | 338 | 1.6 | 3.2 | 0.00 | 0.00 | 0.00 | 38 | 1016.5 |
| 20260507102003 | 17 | 32 | 3.2 | 6.4 | 0.00 | 0.00 | 0.00 | 45 | 1016.6 |
| 20260507101447 | 17 | 97 | 3.2 | 4.8 | 0.00 | 0.00 | 0.00 | 46 | 1016.5 |
| 20260507101002 | 18 | 132 | 3.2 | 4.8 | 0.00 | 0.00 | 0.00 | 46 | 1016.5 |
| 20260507095951 | 16 | 167 | 3.2 | 6.4 | 0.00 | 0.00 | 0.00 | 50 | 1016.6 |
| 20260507094951 | 16 | 201 | 1.6 | 3.2 | 0.00 | 0.00 | 0.00 | 53 | 1016.5 |
| 20260507093951 | 17 | 222 | 1.6 | 3.2 | 0.00 | 0.00 | 0.00 | 53 | 1016.6 |
| 20260507093506 | 16 | 213 | 3.2 | 6.4 | 0.00 | 0.00 | 0.00 | 53 | 1016.8 |
| 20260507092955 | 16 | 203 | 3.2 | 6.4 | 0.00 | 0.00 | 0.00 | 58 | 1016.2 |
| 20260507091955 | 15 | 184 | 3.2 | 3.2 | 0.00 | 0.00 | 0.00 | 61 | 1016.5 |
| 20260507090954 | 14 | 186 | 1.6 | 4.8 | 0.00 | 0.00 | 0.00 | 64 | 1016.7 |
| 20260507085954 | 15 | 157 | 3.2 | 6.4 | 0.00 | 0.00 | 0.00 | 61 | 1016.7 |
| 20260507085454 | 15 | 85 | 1.6 | 3.2 | 0.00 | 0.00 | 0.00 | 61 | 1016.7 |
| 20260507084953 | 15 | 107 | 1.6 | 3.2 | 0.00 | 0.00 | 0.00 | 63 | 1016.7 |
| 20260507083952 | 15 | 98 | 0.0 | 1.6 | 0.00 | 0.00 | 0.00 | 61 | 1016.6 |
| 20260507082952 | 15 | 143 | 0.0 | 3.2 | 0.00 | 0.00 | 0.00 | 63 | 1016.8 |
| 20260507081952 | 15 | 190 | 3.2 | 3.2 | 0.00 | 0.00 | 0.00 | 64 | 1016.7 |
| 20260507081506 | 16 | 90 | 3.2 | 4.8 | 0.00 | 0.00 | 0.00 | 67 | 1016.7 |
| 20260507080956 | 15 | 270 | 0.0 | 3.2 | 0.00 | 0.00 | 0.00 | 72 | 1016.7 |
| 20260507075955 | 14 | 225 | 0.0 | 1.6 | 0.00 | 0.00 | 0.00 | 86 | 1016.7 |
| 20260507075509 | 13 | 225 | 0.0 | 1.6 | 0.00 | 0.00 | 0.00 | 91 | 1016.7 |
| 20260507074958 | 11 | 225 | 0.0 | 3.2 | 0.00 | 0.00 | 0.00 | 91 | 1016.5 |
| 20260507073958 | 10 | 225 | 0.0 | 1.6 | 0.00 | 0.00 | 0.00 | 93 | 1016.6 |
| 20260507073457 | 9 | 225 | 1.6 | 3.2 | 0.00 | 0.00 | 0.00 | 95 | 1016.6 |
| 20260507072957 | 9 | 225 | 0.0 | 1.6 | 0.00 | 0.00 | 0.00 | 95 | 1016.7 |
| 20260507072457 | 9 | 225 | 0.0 | 1.6 | 0.00 | 0.00 | 0.00 | 96 | 1016.6 |
| 20260507071856 | 8 | 225 | 1.6 | 3.2 | 0.00 | 0.00 | 0.00 | 97 | 1016.5 |
| 20260507071401 | 8 | 225 | 1.6 | 3.2 | 0.00 | 0.00 | 0.00 | 98 | 1016.6 |
| 20260507070400 | 8 | 360 | 0.0 | 1.6 | 0.00 | 0.00 | 0.00 | 98 | 1016.5 |
| 20260507065400 | 7 | 304 | 0.0 | 1.6 | 0.00 | 0.00 | 0.00 | 98 | 1016.5 |
| 20260507064400 | 7 | 304 | 1.6 | 3.2 | 0.00 | 0.00 | 0.00 | 97 | 1016.6 |
| 20260507063859 | 6 | 270 | 0.0 | 3.2 | 0.00 | 0.00 | 0.00 | 98 | 1016.6 |
| 20260507063359 | 6 | 270 | 3.2 | 3.2 | 0.00 | 0.00 | 0.00 | 98 | 1016.6 |
| 20260507062358 | 6 | 180 | 0.0 | 0.0 | 0.00 | 0.00 | 0.00 | 98 | 1016.4 |
| 20260507061858 | 6 | 180 | 0.0 | 3.2 | 0.00 | 0.00 | 0.00 | 98 | 1016.4 |
| 20260507061358 | 5 | 180 | 0.0 | 3.2 | 0.00 | 0.00 | 0.00 | 99 | 1016.2 |
| 20260507060357 | 5 | 315 | 0.0 | 1.6 | 0.00 | 0.00 | 0.00 | 99 | 1016.6 |
| 20260507055857 | 5 | 315 | 0.0 | 3.2 | 0.00 | 0.00 | 0.00 | 99 | 1016.4 |
| 20260507055356 | 5 | 298 | 0.0 | 1.6 | 0.00 | 0.00 | 0.00 | 99 | 1016.5 |
| 20260507054356 | 4 | 298 | 0.0 | 3.2 | 0.00 | 0.00 | 0.00 | 99 | 1016.3 |
| 20260507053855 | 5 | 298 | 1.6 | 4.8 | 0.00 | 0.00 | 0.00 | 99 | 1016.2 |
| 20260507053355 | 5 | 283 | 0.0 | 3.2 | 0.00 | 0.00 | 0.00 | 99 | 1016.2 |
| 20260507052354 | 4 | 276 | 0.0 | 1.6 | 0.00 | 0.00 | 0.00 | 99 | 1016.1 |
| 20260507051854 | 4 | 276 | 0.0 | 1.6 | 0.00 | 0.00 | 0.00 | 99 | 1016.3 |
| 20260507051353 | 4 | 276 | 0.0 | 1.6 | 0.00 | 0.00 | 0.00 | 98 | 1016.1 |
| 20260507050408 | 3 | 225 | 1.6 | 3.2 | 0.00 | 0.00 | 0.00 | 98 | 1016.0 |
| 20260507045858 | 3 | 180 | 0.0 | 3.2 | 0.00 | 0.00 | 0.00 | 98 | 1016.0 |
| 20260507045357 | 3 | 180 | 0.0 | 1.6 | 0.00 | 0.00 | 0.00 | 99 | 1016.0 |
| 20260507044356 | 3 | 360 | 0.0 | 1.6 | 0.00 | 0.00 | 0.00 | 98 | 1016.1 |
| 20260507043856 | 3 | 343 | 0.0 | 1.6 | 0.00 | 0.00 | 0.00 | 98 | 1015.9 |
| 20260507043411 | 3 | 343 | 0.0 | 3.2 | 0.00 | 0.00 | 0.00 | 98 | 1015.9 |
| 20260507042401 | 3 | 343 | 1.6 | 3.2 | 0.00 | 0.00 | 0.00 | 97 | 1015.8 |
| 20260507041900 | 3 | 315 | 0.0 | 1.6 | 0.00 | 0.00 | 0.00 | 97 | 1016.0 |
| 20260507041359 | 3 | 315 | 1.6 | 3.2 | 0.00 | 0.00 | 0.00 | 97 | 1015.9 |
| 20260507040359 | 3 | 180 | 0.0 | 1.6 | 0.00 | 0.00 | 0.00 | 97 | 1016.1 |
| 20260507035858 | 3 | 180 | 0.0 | 1.6 | 0.00 | 0.00 | 0.00 | 97 | 1016.0 |
| 20260507035357 | 3 | 180 | 0.0 | 3.2 | 0.00 | 0.00 | 0.00 | 97 | 1015.9 |
| 20260507034357 | 3 | 180 | 0.0 | 1.6 | 0.00 | 0.00 | 0.00 | 96 | 1015.8 |
| 20260507033856 | 3 | 180 | 0.0 | 0.0 | 0.00 | 0.00 | 0.00 | 96 | 1015.9 |
| 20260507033355 | 3 | 180 | 0.0 | 1.6 | 0.00 | 0.00 | 0.00 | 96 | 1015.9 |
| 20260507032354 | 3 | 180 | 0.0 | 1.6 | 0.00 | 0.00 | 0.00 | 96 | 1016.0 |
| 20260507031854 | 3 | 180 | 0.0 | 3.2 | 0.00 | 0.00 | 0.00 | 96 | 1015.9 |
| 20260507031353 | 3 | 180 | 0.0 | 0.0 | 0.00 | 0.00 | 0.00 | 96 | 1015.9 |
| 20260507030353 | 3 | 180 | 0.0 | 0.0 | 0.00 | 0.00 | 0.00 | 95 | 1015.7 |
| 20260507025853 | 3 | 180 | 0.0 | 1.6 | 0.00 | 0.00 | 0.00 | 95 | 1016.0 |
| 20260507025352 | 4 | 180 | 0.0 | 1.6 | 0.00 | 0.00 | 0.00 | 94 | 1015.8 |
| 20260507024352 | 4 | 180 | 0.0 | 3.2 | 0.00 | 0.00 | 0.00 | 94 | 1015.8 |
| 20260507023906 | 4 | 180 | 0.0 | 1.6 | 0.00 | 0.00 | 0.00 | 94 | 1015.8 |
| 20260507023356 | 4 | 180 | 0.0 | 1.6 | 0.00 | 0.00 | 0.00 | 94 | 1015.9 |
| 20260507022356 | 4 | 180 | 0.0 | 0.0 | 0.00 | 0.00 | 0.00 | 94 | 1015.8 |
| 20260507021910 | 4 | 180 | 0.0 | 3.2 | 0.00 | 0.00 | 0.00 | 94 | 1015.9 |
| 20260507021400 | 4 | 360 | 0.0 | 0.0 | 0.00 | 0.00 | 0.00 | 94 | 1015.7 |
| 20260507020359 | 4 | 343 | 0.0 | 0.0 | 0.00 | 0.00 | 0.00 | 93 | 1015.9 |
| 20260507015858 | 5 | 343 | 0.0 | 1.6 | 0.00 | 0.00 | 0.00 | 92 | 1015.9 |
| 20260507015358 | 5 | 343 | 0.0 | 1.6 | 0.00 | 0.00 | 0.00 | 92 | 1016.0 |
| 20260507014358 | 5 | 315 | 0.0 | 1.6 | 0.00 | 0.00 | 0.00 | 91 | 1015.8 |
| 20260507013857 | 5 | 315 | 1.6 | 3.2 | 0.00 | 0.00 | 0.00 | 91 | 1015.7 |
| 20260507013357 | 5 | 180 | 0.0 | 0.0 | 0.00 | 0.00 | 0.00 | 91 | 1015.7 |
| 20260507012356 | 5 | 180 | 0.0 | 0.0 | 0.00 | 0.00 | 0.00 | 91 | 1015.8 |
| 20260507011856 | 5 | 180 | 0.0 | 1.6 | 0.00 | 0.00 | 0.00 | 91 | 1015.9 |
| 20260507011356 | 5 | 180 | 0.0 | 1.6 | 0.00 | 0.00 | 0.00 | 91 | 1015.9 |
| 20260507010355 | 5 | 270 | 0.0 | 1.6 | 0.00 | 0.00 | 0.00 | 91 | 1015.8 |
| 20260507005854 | 6 | 270 | 0.0 | 0.0 | 0.00 | 0.00 | 0.00 | 91 | 1015.7 |
| 20260507005409 | 6 | 270 | 0.0 | 0.0 | 0.00 | 0.00 | 0.00 | 90 | 1015.7 |
| 20260507004359 | 6 | 270 | 0.0 | 0.0 | 0.00 | 0.00 | 0.00 | 89 | 1015.7 |
| 20260507003858 | 6 | 270 | 1.6 | 3.2 | 0.00 | 0.00 | 0.00 | 89 | 1015.8 |
| 20260507003358 | 6 | 180 | 0.0 | 0.0 | 0.00 | 0.00 | 0.00 | 89 | 1016.0 |
| 20260507002358 | 6 | 180 | 0.0 | 0.0 | 0.00 | 0.00 | 0.00 | 88 | 1015.9 |
| 20260507001858 | 6 | 270 | 0.0 | 0.0 | 0.00 | 0.00 | 0.00 | 88 | 1015.9 |
| 20260507001358 | 6 | 250 | 0.0 | 0.0 | 0.00 | 0.00 | 0.00 | 88 | 1015.8 |
| 20260507000413 | 6 | 217 | 0.0 | 0.0 | 0.00 | 0.00 | 0.00 | 88 | 1015.9 |
| 20260506235902 | 6 | 216 | 0.0 | 1.6 | 0.00 | 0.00 | 0.00 | 88 | 1016.0 |
| 20260506235351 | 7 | 216 | 1.6 | 3.2 | 0.00 | 0.00 | 0.00 | 87 | 1015.9 |
| 20260506234406 | 7 | 167 | 3.2 | 3.2 | 0.00 | 0.00 | 0.00 | 86 | 1015.5 |
| 20260506233356 | 7 | 45 | 1.6 | 3.2 | 0.00 | 0.00 | 0.00 | 85 | 1015.6 |
| 20260506232355 | 7 | 45 | 0.0 | 3.2 | 0.00 | 0.00 | 0.00 | 85 | 1015.6 |
| 20260506231855 | 7 | 45 | 0.0 | 1.6 | 0.00 | 0.00 | 0.00 | 85 | 1015.5 |
| 20260506231354 | 7 | 45 | 0.0 | 3.2 | 0.00 | 0.00 | 0.00 | 84 | 1015.9 |
| 20260506230409 | 7 | 45 | 3.2 | 3.2 | 0.00 | 0.00 | 0.00 | 84 | 1015.6 |
| 20260506225859 | 8 | 180 | 0.0 | 0.0 | 0.00 | 0.00 | 0.00 | 83 | 1015.7 |
| 20260506225348 | 8 | 45 | 0.0 | 0.0 | 0.00 | 0.00 | 0.00 | 83 | 1015.8 |
| 20260506224403 | 8 | 87 | 0.0 | 1.6 | 0.00 | 0.00 | 0.00 | 82 | 1015.7 |
| 20260506223902 | 8 | 75 | 0.0 | 1.6 | 0.00 | 0.00 | 0.00 | 82 | 1015.6 |
| 20260506223402 | 8 | 86 | 0.0 | 0.0 | 0.00 | 0.00 | 0.00 | 82 | 1015.9 |
| 20260506222402 | 8 | 79 | 1.6 | 3.2 | 0.00 | 0.00 | 0.00 | 81 | 1015.7 |
| 20260506221902 | 8 | 72 | 3.2 | 6.4 | 0.00 | 0.00 | 0.00 | 80 | 1015.7 |
| 20260506221401 | 8 | 64 | 3.2 | 3.2 | 0.00 | 0.00 | 0.00 | 79 | 1015.7 |
| 20260506220401 | 8 | 51 | 3.2 | 6.4 | 0.00 | 0.00 | 0.00 | 76 | 1015.4 |
| 20260506215900 | 9 | 53 | 3.2 | 4.8 | 0.00 | 0.00 | 0.00 | 76 | 1015.6 |
| 20260506215400 | 9 | 56 | 3.2 | 6.4 | 0.00 | 0.00 | 0.00 | 75 | 1015.4 |
| 20260506214404 | 9 | 45 | 3.2 | 6.4 | 0.00 | 0.00 | 0.00 | 74 | 1015.3 |
| 20260506213849 | 9 | 45 | 3.2 | 6.4 | 0.00 | 0.00 | 0.00 | 74 | 1015.4 |
| 20260506213348 | 10 | 45 | 4.8 | 6.4 | 0.00 | 0.00 | 0.00 | 73 | 1015.6 |
| 20260506212803 | 10 | 45 | 3.2 | 3.2 | 0.00 | 0.00 | 0.00 | 72 | 1015.5 |
| 20260506212248 | 10 | 45 | 4.8 | 9.7 | 0.00 | 0.00 | 0.00 | 72 | 1015.5 |
| 20260506211802 | 10 | 41 | 0.0 | 3.2 | 0.00 | 0.00 | 0.00 | 70 | 1015.4 |
| 20260506210802 | 10 | 43 | 1.6 | 3.2 | 0.00 | 0.00 | 0.00 | 69 | 1015.3 |
| 20260506210301 | 10 | 49 | 3.2 | 3.2 | 0.00 | 0.00 | 0.00 | 68 | 1015.2 |
| 20260506205801 | 10 | 52 | 3.2 | 6.4 | 0.00 | 0.00 | 0.00 | 67 | 1015.1 |
| 20260506205300 | 10 | 57 | 1.6 | 4.8 | 0.00 | 0.00 | 0.00 | 67 | 1015.1 |
| 20260506204700 | 10 | 60 | 1.6 | 3.2 | 0.00 | 0.00 | 0.00 | 65 | 1015.1 |
| 20260506204159 | 11 | 74 | 3.2 | 6.4 | 0.00 | 0.00 | 0.00 | 64 | 1015.3 |
| 20260506203214 | 11 | 33 | 3.2 | 4.8 | 0.00 | 0.00 | 0.00 | 60 | 1015.0 |
| 20260506202649 | 11 | 33 | 3.2 | 4.8 | 0.00 | 0.00 | 0.00 | 59 | 1015.0 |
| 20260506202148 | 11 | 26 | 3.2 | 6.4 | 0.00 | 0.00 | 0.00 | 59 | 1014.9 |
| 20260506201203 | 11 | 71 | 1.6 | 4.8 | 0.00 | 0.00 | 0.00 | 57 | 1014.8 |
| 20260506200548 | 11 | 78 | 1.6 | 3.2 | 0.00 | 0.00 | 0.00 | 57 | 1015.1 |
| 20260506195602 | 11 | 72 | 0.0 | 1.6 | 0.00 | 0.00 | 0.00 | 57 | 1014.9 |
| 20260506195102 | 12 | 74 | 1.6 | 4.8 | 0.00 | 0.00 | 0.00 | 55 | 1014.9 |
| 20260506194602 | 12 | 78 | 6.4 | 9.7 | 0.00 | 0.00 | 0.00 | 55 | 1014.8 |
| 20260506193801 | 12 | 41 | 0.0 | 1.6 | 0.00 | 0.00 | 0.00 | 55 | 1014.9 |
| 20260506193201 | 12 | 41 | 3.2 | 6.4 | 0.00 | 0.00 | 0.00 | 55 | 1014.6 |
| 20260506192001 | 12 | 42 | 3.2 | 6.4 | 0.00 | 0.00 | 0.00 | 54 | 1014.7 |
| 20260506191500 | 12 | 42 | 3.2 | 4.8 | 0.00 | 0.00 | 0.00 | 54 | 1014.5 |
| 20260506190805 | 12 | 61 | 3.2 | 3.2 | 0.00 | 0.00 | 0.00 | 54 | 1014.6 |
| 20260506190250 | 12 | 58 | 0.0 | 3.2 | 0.00 | 0.00 | 0.00 | 54 | 1014.4 |
| 20260506185749 | 12 | 63 | 3.2 | 6.4 | 0.00 | 0.00 | 0.00 | 54 | 1014.4 |
| 20260506185249 | 12 | 49 | 3.2 | 6.4 | 0.00 | 0.00 | 0.00 | 54 | 1014.4 |
| 20260506184648 | 12 | 61 | 1.6 | 3.2 | 0.00 | 0.00 | 0.00 | 54 | 1014.2 |
| 20260506183818 | 12 | 57 | 3.2 | 8.0 | 0.00 | 0.00 | 0.00 | 54 | 1014.3 |
| 20260506183332 | 12 | 88 | 3.2 | 6.4 | 0.00 | 0.00 | 0.00 | 54 | 1014.4 |
| 20260506182317 | 13 | 85 | 3.2 | 4.8 | 0.00 | 0.00 | 0.00 | 55 | 1014.3 |
| 20260506181822 | 12 | 71 | 1.6 | 3.2 | 0.00 | 0.00 | 0.00 | 56 | 1014.2 |
| 20260506180706 | 12 | 36 | 0.0 | 1.6 | 0.00 | 0.00 | 0.00 | 56 | 1014.1 |
| 20260506175751 | 13 | 39 | 3.2 | 6.4 | 0.00 | 0.00 | 0.00 | 55 | 1013.9 |
| 20260506174951 | 13 | 30 | 3.2 | 6.4 | 0.00 | 0.00 | 0.00 | 54 | 1013.9 |
| 20260506174350 | 13 | 56 | 3.2 | 4.8 | 0.00 | 0.00 | 0.00 | 54 | 1013.7 |
| 20260506173905 | 13 | 79 | 4.8 | 8.0 | 0.00 | 0.00 | 0.00 | 53 | 1013.6 |
| 20260506172535 | 14 | 106 | 3.2 | 4.8 | 0.00 | 0.00 | 0.00 | 51 | 1013.6 |
| 20260506171204 | 14 | 62 | 4.8 | 8.0 | 0.00 | 0.00 | 0.00 | 51 | 1013.5 |
| 20260506170704 | 15 | 32 | 1.6 | 3.2 | 0.00 | 0.00 | 0.00 | 48 | 1013.5 |
| 20260506170233 | 15 | 64 | 3.2 | 6.4 | 0.00 | 0.00 | 0.00 | 50 | 1013.5 |
| 20260506165202 | 14 | 78 | 3.2 | 6.4 | 0.00 | 0.00 | 0.00 | 51 | 1013.6 |
| 20260506164717 | 14 | 92 | 4.8 | 6.4 | 0.00 | 0.00 | 0.00 | 51 | 1013.7 |
| 20260506163602 | 15 | 62 | 6.4 | 9.7 | 0.00 | 0.00 | 0.00 | 48 | 1013.8 |
| 20260506162316 | 15 | 46 | 1.6 | 4.8 | 0.00 | 0.00 | 0.00 | 46 | 1013.8 |
| 20260506161336 | 15 | 108 | 3.2 | 6.4 | 0.00 | 0.00 | 0.00 | 47 | 1013.7 |
| 20260506160506 | 15 | 129 | 3.2 | 6.4 | 0.00 | 0.00 | 0.00 | 47 | 1013.8 |
| 20260506155755 | 15 | 104 | 6.4 | 11.3 | 0.00 | 0.00 | 0.00 | 45 | 1013.7 |
| 20260506155255 | 15 | 10 | 1.6 | 3.2 | 0.00 | 0.00 | 0.00 | 44 | 1013.8 |
| 20260506154754 | 15 | 17 | 3.2 | 6.4 | 0.00 | 0.00 | 0.00 | 43 | 1013.8 |
| 20260506154309 | 16 | 7 | 3.2 | 3.2 | 0.00 | 0.00 | 0.00 | 41 | 1013.9 |
| 20260506153754 | 17 | 20 | 4.8 | 8.0 | 0.00 | 0.00 | 0.00 | 38 | 1013.7 |
| 20260506153308 | 18 | 56 | 3.2 | 4.8 | 0.00 | 0.00 | 0.00 | 39 | 1013.6 |
| 20260506152807 | 18 | 42 | 6.4 | 9.7 | 0.00 | 0.00 | 0.00 | 41 | 1013.6 |
| 20260506152307 | 16 | 45 | 1.6 | 3.2 | 0.00 | 0.00 | 0.00 | 43 | 1013.6 |
| 20260506151807 | 16 | 45 | 3.2 | 6.4 | 0.00 | 0.00 | 0.00 | 44 | 1013.7 |
| 20260506151307 | 16 | 52 | 6.4 | 11.3 | 0.00 | 0.00 | 0.00 | 43 | 1013.8 |
| 20260506150807 | 15 | 98 | 6.4 | 12.9 | 0.00 | 0.00 | 0.00 | 46 | 1013.7 |
| 20260506150306 | 15 | 38 | 3.2 | 6.4 | 0.00 | 0.00 | 0.00 | 45 | 1013.5 |
| 20260506145806 | 15 | 37 | 3.2 | 6.4 | 0.00 | 0.00 | 0.00 | 45 | 1013.6 |
| 20260506145306 | 15 | 25 | 4.8 | 8.0 | 0.00 | 0.00 | 0.00 | 45 | 1013.8 |
| 20260506144805 | 15 | 10 | 3.2 | 3.2 | 0.00 | 0.00 | 0.00 | 44 | 1013.7 |
| 20260506144305 | 15 | 18 | 3.2 | 6.4 | 0.00 | 0.00 | 0.00 | 42 | 1013.7 |
| 20260506143805 | 16 | 24 | 8.0 | 14.5 | 0.00 | 0.00 | 0.00 | 41 | 1013.8 |
| 20260506143304 | 16 | 41 | 6.4 | 8.0 | 0.00 | 0.00 | 0.00 | 44 | 1013.5 |
| 20260506142804 | 16 | 28 | 3.2 | 3.2 | 0.00 | 0.00 | 0.00 | 45 | 1013.9 |
| 20260506142319 | 16 | 29 | 4.8 | 8.0 | 0.00 | 0.00 | 0.00 | 44 | 1013.7 |
| 20260506141753 | 16 | 48 | 3.2 | 6.4 | 0.00 | 0.00 | 0.00 | 41 | 1013.7 |
| 20260506141308 | 16 | 44 | 3.2 | 6.4 | 0.00 | 0.00 | 0.00 | 39 | 1013.7 |
| 20260506140807 | 16 | 19 | 3.2 | 6.4 | 0.00 | 0.00 | 0.00 | 38 | 1013.9 |
| 20260506140307 | 17 | 22 | 4.8 | 9.7 | 0.00 | 0.00 | 0.00 | 35 | 1013.7 |
| 20260506135806 | 18 | 53 | 9.7 | 14.5 | 0.00 | 0.00 | 0.00 | 35 | 1013.8 |
| 20260506135306 | 17 | 358 | 3.2 | 4.8 | 0.00 | 0.00 | 0.00 | 34 | 1013.6 |
| 20260506134805 | 16 | 3 | 3.2 | 6.4 | 0.00 | 0.00 | 0.00 | 36 | 1013.7 |
| 20260506134305 | 16 | 352 | 9.7 | 17.7 | 0.00 | 0.00 | 0.00 | 33 | 1013.8 |
| 20260506133804 | 18 | 20 | 9.7 | 16.1 | 0.00 | 0.00 | 0.00 | 34 | 1013.7 |
| 20260506133304 | 18 | 44 | 3.2 | 3.2 | 0.00 | 0.00 | 0.00 | 33 | 1013.7 |
| 20260506132803 | 18 | 46 | 4.8 | 8.0 | 0.00 | 0.00 | 0.00 | 33 | 1013.7 |
| 20260506132306 | 17 | 54 | 3.2 | 11.3 | 0.00 | 0.00 | 0.00 | 31 | 1013.7 |
| 20260506131803 | 17 | 42 | 3.2 | 6.4 | 0.00 | 0.00 | 0.00 | 37 | 1013.7 |
| 20260506131307 | 16 | 36 | 3.2 | 4.8 | 0.00 | 0.00 | 0.00 | 40 | 1013.7 |
| 20260506130757 | 16 | 37 | 4.8 | 9.7 | 0.00 | 0.00 | 0.00 | 40 | 1013.7 |
| 20260506130256 | 16 | 32 | 6.4 | 14.5 | 0.00 | 0.00 | 0.00 | 40 | 1013.8 |
| 20260506125810 | 16 | 65 | 6.4 | 16.1 | 0.00 | 0.00 | 0.00 | 34 | 1013.7 |
| 20260506125300 | 17 | 32 | 1.6 | 3.2 | 0.00 | 0.00 | 0.00 | 35 | 1013.7 |
| 20260506124800 | 18 | 57 | 4.8 | 8.0 | 0.00 | 0.00 | 0.00 | 33 | 1013.7 |
| 20260506124259 | 18 | 96 | 3.2 | 4.8 | 0.00 | 0.00 | 0.00 | 34 | 1013.7 |
| 20260506123759 | 17 | 89 | 3.2 | 4.8 | 0.00 | 0.00 | 0.00 | 34 | 1013.5 |